Historique des stations

Station météo de Véretz

Altitude de la station : 70 m







Données météorologiques pour le 17/01/2021
Date
Heure
Températures Humidité Point de rosée Vitesse
du vent
Direction Rafales Windchill Pression Pluviométrie
Cumul
Date
Heure
Températures Humidité Point de rosée Vitesse
du vent
Direction Rafales Windchill Pression Pluviométrie
Cumul
17/01/2021 12:449.1 °C76 %5.0 °C-N19 km/h8.9 1027 hPa-
17/01/2021 12:298.9 °C76 %5.0 °C-NNO16 km/h8.9 1026 hPa-
17/01/2021 12:148.6 °C78 %5.0 °C-O14 km/h8.9 1026 hPa-
17/01/2021 11:598.4 °C79 %5.0 °C-ONO13 km/h8.3 1026 hPa-
17/01/2021 11:458.2 °C82 %5.0 °C-ONO13 km/h8.3 1026 hPa-
17/01/2021 11:307.4 °C84 %5.0 °C-ONO13 km/h7.2 1026 hPa-
17/01/2021 11:147.4 °C86 %5.0 °C-ONO13 km/h7.2 1026 hPa-
17/01/2021 10:596.9 °C89 %5.0 °C-NO13 km/h6.7 1026 hPa-
17/01/2021 10:446.6 °C90 %5.0 °C-NO13 km/h6.7 1025 hPa-
17/01/2021 10:296.2 °C91 %5.0 °C-NO13 km/h6.1 1025 hPa-
17/01/2021 10:155.9 °C92 %4.4 °C-NNO13 km/h6.1 1025 hPa-
17/01/2021 09:595.6 °C92 %4.4 °C-NNO8 km/h5.6 1025 hPa-
17/01/2021 09:455.5 °C92 %4.4 °C-ONO6 km/h5.6 1025 hPa-
17/01/2021 09:305.4 °C92 %4.4 °C-ONO5 km/h5.6 1024 hPa-
17/01/2021 09:145.3 °C92 %3.9 °C-NO5 km/h5.6 1024 hPa-
17/01/2021 08:595.3 °C92 %3.9 °C-ONO5 km/h5.6 1024 hPa-
17/01/2021 08:455.4 °C92 %4.4 °C-NO5 km/h5.6 1024 hPa-
17/01/2021 08:295.4 °C92 %4.4 °C-NO5 km/h5.6 1024 hPa-
17/01/2021 08:145.4 °C92 %4.4 °C-ONO5 km/h5.6 1023 hPa-
17/01/2021 07:595.4 °C92 %4.4 °C-N3 km/h5.6 1023 hPa-
17/01/2021 07:455.4 °C92 %4.4 °C-NO3 km/h5.6 1023 hPa-
17/01/2021 07:305.3 °C92 %3.9 °C-ONO3 km/h5.6 1023 hPa-
17/01/2021 07:145.3 °C92 %3.9 °C-ONO2 km/h5.6 1023 hPa-
17/01/2021 06:595.3 °C92 %3.9 °C-NO2 km/h5.6 1023 hPa-
17/01/2021 06:445.3 °C92 %3.9 °C-NO2 km/h5.6 1022 hPa-
17/01/2021 06:295.3 °C92 %3.9 °C-ONO2 km/h5.6 1022 hPa-
17/01/2021 06:145.4 °C92 %4.4 °C-ONO2 km/h5.6 1022 hPa-
17/01/2021 06:005.4 °C92 %4.4 °C-NO2 km/h5.6 1022 hPa-
17/01/2021 05:445.4 °C92 %4.4 °C-NO2 km/h5.6 1022 hPa-
17/01/2021 05:295.4 °C92 %4.4 °C-NNO2 km/h5.6 1022 hPa-
17/01/2021 05:155.6 °C92 %4.4 °C-ONO2 km/h5.6 1022 hPa-
17/01/2021 04:595.6 °C92 %4.4 °C-ONO2 km/h5.6 1022 hPa-
17/01/2021 04:445.7 °C92 %4.4 °C-ONO2 km/h5.6 1022 hPa-
17/01/2021 04:305.7 °C92 %4.4 °C-ONO2 km/h5.6 1022 hPa-
17/01/2021 04:145.7 °C92 %4.4 °C-ONO2 km/h5.6 1021 hPa-
17/01/2021 04:005.6 °C92 %4.4 °C-ONO2 km/h5.6 1021 hPa-
17/01/2021 03:445.6 °C92 %4.4 °C-NO2 km/h5.6 1021 hPa-
17/01/2021 03:295.5 °C92 %4.4 °C-NO2 km/h5.6 1021 hPa-
17/01/2021 03:145.4 °C92 %4.4 °C-O2 km/h5.6 1021 hPa-
17/01/2021 03:005.4 °C91 %3.9 °C-ONO2 km/h5.6 1021 hPa-
17/01/2021 02:445.3 °C91 %3.9 °C-NO2 km/h5.6 1021 hPa-
17/01/2021 02:295.2 °C92 %3.9 °C-ONO2 km/h5.0 1021 hPa-
17/01/2021 02:145.1 °C92 %3.9 °C-NO2 km/h5.0 1021 hPa-
17/01/2021 02:005.1 °C91 %3.9 °C-ONO2 km/h5.0 1021 hPa-
17/01/2021 01:445.1 °C91 %3.9 °C-NNO2 km/h5.0 1021 hPa-
17/01/2021 01:295.1 °C91 %3.9 °C-ONO2 km/h5.0 1021 hPa-
17/01/2021 01:145.2 °C91 %3.9 °C-NO2 km/h5.0 1021 hPa-
17/01/2021 01:005.3 °C91 %3.9 °C-NO2 km/h5.6 1021 hPa-
17/01/2021 00:445.6 °C91 %4.4 °C-NNO2 km/h5.6 1021 hPa-
17/01/2021 00:295.9 °C91 %4.4 °C-ONO2 km/h6.1 1021 hPa-
17/01/2021 00:156.2 °C91 %5.0 °C-ONO2 km/h6.1 1021 hPa-


Minima :

Température : 5.1 °C
Humidité : 76 %
Point de rosée : 3.9 °C
Vent moyen : - km/h
Windchill : 5.0
Pression atm. : 1021 hPa
Maxima :

Température : 9.1 °C
Humidité : 92 %
Point de rosée : 5.0 °C
Vent moyen : 0 km/h
Windchill : 8.9
Pression atm. : 1027 hPa
Rafales max : 19 km/h
Cumul de pluie sur 24H : 0 mm

Véretz est une commune du département Indre-et-Loire (37).
La station météorologique du réseau de l'association la plus proche de Véretz est celle de Reugny
Site du propriétaire de la station : http://www.meteo-veretz.fr/



Icône Facebook Association Météo Centre Icône Twitter Association Météo Centre Icône Chaîne Youtube Association Météo Centre Icône contact Association Météo Centre Icône Insta Association Météo Centre